Estación de Algarrobo Bajo INIA

Ultimos registro cada 15 minutos 25
Estación Fecha / Hora Temperatura Humedad Lluvia Velocidad Dirección Radiación Presion
25 Algarrobo Bajo INIA 05-09-2026 06:00 5,2 97 0 0 0 0,2 0
24 Algarrobo Bajo INIA 05-09-2026 05:45 4,7 96,7 0 0 0 0,2 0
23 Algarrobo Bajo INIA 05-09-2026 05:30 4,5 96,3 0 0 0 0,2 0
22 Algarrobo Bajo INIA 05-09-2026 05:15 4,4 96,2 0 0 0 0,2 0
21 Algarrobo Bajo INIA 05-09-2026 05:00 4,7 96,3 0 0 0 0,2 0
20 Algarrobo Bajo INIA 05-09-2026 04:45 5,2 95,8 0 0 0 0,2 0
19 Algarrobo Bajo INIA 05-09-2026 04:30 5,4 96,1 0 0 0 0,1 0
18 Algarrobo Bajo INIA 05-09-2026 04:15 5,8 95,1 0 0,1 52 0,1 0
17 Algarrobo Bajo INIA 05-09-2026 04:00 6 95,2 0 0,3 48 0 0
16 Algarrobo Bajo INIA 05-09-2026 03:45 6,2 94,8 0 0 0 0,1 0
15 Algarrobo Bajo INIA 05-09-2026 03:30 5,6 95,6 0 0 0 0 0
14 Algarrobo Bajo INIA 05-09-2026 03:15 5,4 94,9 0 0 0 0,1 0
13 Algarrobo Bajo INIA 05-09-2026 03:00 5,9 94,7 0 0 0 0,1 0
12 Algarrobo Bajo INIA 05-09-2026 02:45 6,7 94,1 0 0,1 4 0,1 0
11 Algarrobo Bajo INIA 05-09-2026 02:30 6,9 93,5 0 0 4 0,1 0
10 Algarrobo Bajo INIA 05-09-2026 02:15 6,6 94,1 0 0 303 0 0
9 Algarrobo Bajo INIA 05-09-2026 02:00 6,9 93,8 0 0 0 0,1 0
8 Algarrobo Bajo INIA 05-09-2026 01:45 6,6 94,4 0 0 0 0,1 0
7 Algarrobo Bajo INIA 05-09-2026 01:30 7,3 91,9 0 0 0 0 0
6 Algarrobo Bajo INIA 05-09-2026 01:15 7,4 92,9 0 0 0 0 0
5 Algarrobo Bajo INIA 05-09-2026 01:00 8 92 0 0 0 0 0
4 Algarrobo Bajo INIA 05-09-2026 00:45 8,2 92,1 0 0 0 0,1 0
3 Algarrobo Bajo INIA 05-09-2026 00:30 8 92,3 0 0 0 0,2 0
2 Algarrobo Bajo INIA 05-09-2026 00:15 8,3 91 0 0 348 0,1 0
1 Algarrobo Bajo INIA 05-09-2026 00:00 8,5 90,6 0 0,1 330 0,1 0